Regional Weather Roundup
Issued by NWS

Home | Current Version | Previous Version | Graphics & Text | Print | Product List | Glossary On
Versions: 1 2 3 4 5 6 7 8 9 10 11 12 13 14 15 16 17 18 19 20 21 22 23 24 25 26 27 28 29 30 31 32 33 34 35 36 37 38 39 40 41 42 43 44 45 46 47 48 49 50
000
ASUS45 KBOU 141310
RWRCO

WEATHER ROUNDUP FOR COLORADO
NATIONAL WEATHER SERVICE DENVER/BOULDER CO
700 AM MDT MON JUL 14 2014

NOTE: "FAIR" INDICATES FEW OR NO CLOUDS BELOW 12000 FEET WITH NO
SIGNIFICANT WEATHER AND/OR OBSTRUCTIONS TO VISIBILITY.

COZ001>005-013-030-031-141400-
...NORTHWEST COLORADO...

CITY           SKY/WX    TMP DP  RH WIND       PRES   REMARKS
CRAIG          SUNNY     49  49 100 SW3       30.36R
HAYDEN         SUNNY     57  46  67 E9        30.38R
MEEKER         SUNNY     56  46  69 CALM      30.36R
MOUNT WERNER   NOT AVBL
STEAMBOAT SPGS SUNNY     53  48  83 CALM      30.40S
WALDEN         SUNNY     45  41  87 CALM      30.50R
$$

COZ006>008-011-141400-
...WEST CENTRAL VALLEYS...

CITY           SKY/WX    TMP DP  RH WIND       PRES   REMARKS
GRAND JUNCTION PTCLDY    73  45  36 SE9       30.20R
MONTROSE       PTSUNNY   66  47  50 SE5       30.31R
EAGLE          MOSUNNY   55  48  76 CALM      30.42R
RIFLE          SUNNY     60  50  69 CALM      30.29R
DELTA          PTSUNNY   67  47  47 CALM      30.26R
NUCLA          MOCLDY    68  46  45 E8        30.37R
$$

COZ017>023-064>068-141400-
...SOUTHWEST COLORADO...

CITY           SKY/WX    TMP DP  RH WIND       PRES   REMARKS
DURANGO        MOCLDY    59  53  80 CALM      30.39S
CORTEZ         CLEAR     60  51  72 CALM      30.33R
PAGOSA SPRINGS PTSUNNY   56  54  92 CALM      30.47S
TELLURIDE      MOCLDY    57  46  67 CALM      30.55R
WOLF CREEK PAS NOT AVBL
$$

COZ009-010-012-014-032>034-037-058>063-141400-
...CENTRAL COLORADO...

CITY           SKY/WX    TMP DP  RH WIND       PRES   REMARKS
ASPEN          MOSUNNY   55  45  68 S5        30.46R
BUENA VISTA    PTSUNNY   58  50  75 W5        30.50S
COPPER MTN     SUNNY     54  39  58 W9        30.76S
BERTHOUD PASS  FAIR      43  30  61 MISG      30.81R
COTTONWOOD PAS MOSUNNY   55  46  71 NW3       30.62S
GUNNISON       PTSUNNY   55  45  67 N5        30.50S
KREMMLING      SUNNY     50  45  81 CALM      30.48S
LEADVILLE      CLOUDY    50  47  89 CALM      30.61S
MONARCH PASS   PTSUNNY   46  43  87 SW8       30.85S
SALIDA         MOSUNNY  N/A N/A N/A N6        30.54S
SUNLIGHT       MOSUNNY   55  45  67 CALM      30.68S
WILKERSON PASS FOG       46  46 100 W5        30.74R VSB<1/4
$$

COZ069>075-141400-
...SAN LUIS VALLEY/SANGRE DE CRISTO MOUNTAINS...

CITY           SKY/WX    TMP DP  RH WIND       PRES   REMARKS
ALAMOSA        PTSUNNY   58  50  75 N3        30.46S
LA VETA PASS   CLOUDY    46  45  93 W5        30.61S
SAGUACHE       NOT AVBL
$$

COZ035-036-038>040-141400-
...NORTHERN COLORADO FRONT RANGE...

CITY           SKY/WX    TMP DP  RH WIND       PRES   REMARKS
DENVER INTL AP MOSUNNY   64  58  80 W9        30.31R
DMNS CITY PARK   N/A     67  57  72 NW3       30.32S
AURORA         MOSUNNY   62  62  97 W5        30.34R
FRONT RANGE AP NOT AVBL
ERIE MUNI ARPT SUNNY     60  58  93 SW3       30.31R
BOULDER MUN AP SUNNY     64  55  72 W3        30.31S
CENTENNIAL     MOSUNNY   62  56  80 W7        30.35R
BROOMFIELD     MOSUNNY   66  54  63 W7        30.34R
FORT COLLINS   SUNNY     63  54  72 N6        30.31R
LONGMONT       SUNNY     66  57  73 CALM      30.32S
$$

COZ041-046-047-076>085-087-088-141400-
...PIKES PEAK/PALMER DIVIDE AND SOUTHERN FOOTHILLS...

CITY           SKY/WX    TMP DP  RH WIND       PRES   REMARKS
COLO. SPRINGS  MOSUNNY   64  58  80 N6        30.34S
A. F. ACADEMY  SUNNY     58  58 100 N8        30.37S
ELLICOTT       SUNNY     63  59  87 N6        30.32
FALCON         MOSUNNY   64  56  74 N8        30.39F
FORT CARSON    SUNNY     63  62  96 N10       30.31S
LIMON          SUNNY     62  59  90 NW6       30.29R
MONUMENT HILL  SUNNY     61  55  82 W6        30.40R
TRINIDAD       CLOUDY    65  59  81 NW3       30.30R
$$

COZ042>045-048>051-090-091-141400-
...NORTHEAST COLORADO...

CITY           SKY/WX    TMP DP  RH WIND       PRES   REMARKS
GREELEY ARPT   NOT AVBL
AKRON          MOSUNNY   66  61  84 W15       30.25R
BURLINGTON     SUNNY     66  61  84 W9        30.19S
WRAY           SUNNY     67  63  85 NW9       30.18R
STERLING       SUNNY     68  63  83 N3        30.23R
HOLYOKE        PTSUNNY   66  59  77 N17       30.20R THUNDER
FORT MORGAN    SUNNY     59  57  93 W9        30.25R
$$

COZ086-089-092>099-141400-
...SOUTHEAST COLORADO...

CITY           SKY/WX    TMP DP  RH WIND       PRES   REMARKS
PUEBLO         MOSUNNY   66  63  90 N3        30.23S
LA JUNTA       MOSUNNY   67  63  87 CALM      30.21R
LAMAR          MOSUNNY   67  64  90 W3        30.16F FOG
SPRINGFIELD      N/A     66  60  81 SE3       30.21R
$$



USA.gov is the U.S. government's official web portal to all federal, state and local government web resources and services.